User: anonymous   Login
Location: Campo Claro
(10.4907°N, 66.8285°W)
Time: 23:37:30
(UTC+00:00)
Language:

Cosmos 1980 Rocket - Orbit

View from above orbital plane
View from above orbital plane
View from above satellite
View from above satellite

Ground track
Ground track

The orbit data is extracted from the following two-line orbital elements,

1 19650U 88102B   22140.48554704  .00000072  00000-0  60989-4 0  9991
2 19650  70.9991 193.6531 0015640 318.7414  41.2526 14.15826175730246
Epoch (UTC): 20 May 2022 11:39:11
Eccentricity: 0.0015640
inclination: 70.9991°
perigee height: 828 km
apogee height: 851 km
right ascension of ascending node: 193.6531°
argument of perigee: 318.7414°
revolutions per day: 14.15826175
mean anomaly at epoch: 41.2526°
orbit number at epoch: 73024

The dashed part of the orbit path shows where the satellite is in the earth's shadow,  

DLR